Weather History for Chippewa, MI

Change the Weather History Date:

Monday, June 10, 2013

  Actual Average Record
Temperature  
Mean Temperature 63 °F -  
Max Temperature 69 °F 69 °F 87 °F (2012)
Min Temperature 57 °F 44 °F 27 °F (1980)
Degree Days  
Heating Degree Days 2    
Growing Degree Days 13 (Base 50)    
Moisture  
Dew Point 54 °F    
Average Humidity 73    
Maximum Humidity 94    
Minimum Humidity 60    
Precipitation  
Precipitation 0.00 in - - ()
Sea Level Pressure  
Sea Level Pressure 29.92 in    
Wind  
Wind Speed 11 mph (East)    
Max Wind Speed 18 mph    
Max Gust Speed 22 mph    
Visibility 10 miles    
Events      
Averages and records for this station are not official NWS values.
T = Trace of Precipitation, MM = Missing Value Source: NWS Daily Summary

Daily Weather History Graph

Daily Weather History Graph

Search for Another Location

Airport:

Trip Planner

Search our weather history database for the weather conditions in past years. The results will help you decide how hot, cold, wet, or windy it might be!

Date:

Astronomy

Jun. 10, 2013 Rise Set
Actual Time 5:45 AM EDT 9:29 PM EDT
Civil Twilight 5:07 AM EDT 10:07 PM EDT
Nautical Twilight 4:15 AM EDT 10:59 PM EDT
Astronomical Twilight 3:03 AM EDT 12:12 AM EDT
Moon 7:38 AM EDT (6/10) 10:48 PM EDT (6/10)
Length of Visible Light 17h 00m
Length of Day
15h 43m
Waxing Crescent, 4% of the Moon is Illuminated
Jun 10
Waxing Crescent
Jun 16
First Quarter
Jun 23
Full
Jun 30
Last Quarter
Jul 8
New

Hourly Weather History & Observations

Time (EDT) Temp. Dew Point Humidity Pressure Visibility Wind Dir Wind Speed Gust Speed Precip Events Conditions
12:15 AM 60.8 °F 50.0 °F 68% 30.05 in 10.0 mi ESE 10.4 mph - N/A   Clear
12:35 AM 60.8 °F 51.8 °F 72% 30.05 in 10.0 mi East 9.2 mph - N/A   Clear
12:55 AM 60.8 °F 50.0 °F 68% 30.04 in 10.0 mi East 11.5 mph - N/A   Clear
1:15 AM 60.8 °F 50.0 °F 68% 30.04 in 10.0 mi East 10.4 mph - N/A   Clear
1:35 AM 60.8 °F 48.2 °F 63% 30.03 in 10.0 mi ESE 11.5 mph - N/A   Partly Cloudy
1:55 AM 60.8 °F 48.2 °F 63% 30.03 in 10.0 mi ESE 11.5 mph - N/A   Partly Cloudy
2:15 AM 60.8 °F 48.2 °F 63% 30.03 in 10.0 mi ESE 9.2 mph - N/A   Partly Cloudy
2:35 AM 60.8 °F 48.2 °F 63% 30.02 in 10.0 mi ESE 10.4 mph - N/A   Mostly Cloudy
2:55 AM 60.8 °F 48.2 °F 63% 30.01 in 10.0 mi East 9.2 mph - N/A   Mostly Cloudy
3:15 AM 60.8 °F 48.2 °F 63% 30.00 in 10.0 mi East 9.2 mph - N/A   Overcast
3:35 AM 60.8 °F 48.2 °F 63% 30.00 in 10.0 mi East 8.1 mph - N/A   Overcast
3:55 AM 60.8 °F 48.2 °F 63% 29.99 in 10.0 mi East 11.5 mph - N/A   Overcast
4:15 AM 60.8 °F 48.2 °F 63% 29.98 in 10.0 mi East 11.5 mph - N/A   Overcast
4:35 AM 60.8 °F 48.2 °F 63% 29.97 in 10.0 mi East 12.7 mph - N/A   Overcast
4:55 AM 59.0 °F 50.0 °F 72% 29.97 in 10.0 mi East 11.5 mph - N/A   Mostly Cloudy
5:15 AM 59.0 °F 50.0 °F 72% 29.97 in 10.0 mi East 12.7 mph - N/A   Mostly Cloudy
5:35 AM 59.0 °F 50.0 °F 72% 29.96 in 10.0 mi East 15.0 mph - N/A   Scattered Clouds
5:55 AM 57.2 °F 51.8 °F 82% 29.96 in 10.0 mi East 13.8 mph - N/A   Scattered Clouds
6:15 AM 59.0 °F 51.8 °F 77% 29.96 in 10.0 mi East 11.5 mph - N/A   Mostly Cloudy
6:35 AM 59.0 °F 51.8 °F 77% 29.96 in 10.0 mi ESE 10.4 mph - N/A   Overcast
6:55 AM 60.8 °F 51.8 °F 72% 29.96 in 10.0 mi ESE 11.5 mph - N/A   Overcast
7:15 AM 60.8 °F 51.8 °F 72% 29.96 in 10.0 mi ESE 8.1 mph - N/A   Mostly Cloudy
7:35 AM 60.8 °F 51.8 °F 72% 29.96 in 10.0 mi East 8.1 mph - N/A   Mostly Cloudy
7:55 AM 60.8 °F 51.8 °F 72% 29.96 in 10.0 mi East 9.2 mph - N/A   Mostly Cloudy
8:15 AM 60.8 °F 51.8 °F 72% 29.96 in 10.0 mi East 8.1 mph - N/A   Mostly Cloudy
8:35 AM 60.8 °F 51.8 °F 72% 29.95 in 10.0 mi East 10.4 mph 16.1 mph N/A   Partly Cloudy
8:55 AM 60.8 °F 51.8 °F 72% 29.95 in 10.0 mi East 13.8 mph - N/A   Mostly Cloudy
9:15 AM 62.6 °F 51.8 °F 68% 29.95 in 10.0 mi East 11.5 mph - N/A   Mostly Cloudy
9:35 AM 62.6 °F 51.8 °F 68% 29.94 in 10.0 mi East 11.5 mph - N/A   Overcast
9:55 AM 62.6 °F 51.8 °F 68% 29.94 in 10.0 mi East 11.5 mph 16.1 mph N/A   Overcast
10:15 AM 64.4 °F 51.8 °F 64% 29.93 in 10.0 mi ESE 15.0 mph - N/A   Mostly Cloudy
10:35 AM 62.6 °F 51.8 °F 68% 29.93 in 10.0 mi East 12.7 mph - N/A   Overcast
10:55 AM 62.6 °F 51.8 °F 68% 29.92 in 10.0 mi East 13.8 mph - N/A   Overcast
11:15 AM 62.6 °F 51.8 °F 68% 29.92 in 10.0 mi East 15.0 mph 18.4 mph N/A   Mostly Cloudy
11:35 AM 62.6 °F 51.8 °F 68% 29.91 in 10.0 mi East 15.0 mph 19.6 mph N/A   Overcast
11:55 AM 62.6 °F 51.8 °F 68% 29.91 in 9.0 mi East 17.3 mph - N/A   Overcast
12:15 PM 62.6 °F 51.8 °F 68% 29.91 in 10.0 mi East 16.1 mph 20.7 mph N/A   Mostly Cloudy
12:35 PM 62.6 °F 51.8 °F 68% 29.91 in 10.0 mi East 15.0 mph 21.9 mph N/A   Scattered Clouds
12:55 PM 64.4 °F 53.6 °F 68% 29.92 in 10.0 mi ESE 15.0 mph 18.4 mph N/A   Mostly Cloudy
1:15 PM 64.4 °F 53.6 °F 68% 29.91 in 10.0 mi East 10.4 mph - N/A   Mostly Cloudy
1:35 PM 66.2 °F 53.6 °F 64% 29.90 in 10.0 mi East 12.7 mph - N/A   Clear
1:55 PM 66.2 °F 53.6 °F 64% 29.89 in 10.0 mi East 15.0 mph - N/A   Clear
2:15 PM 64.4 °F 53.6 °F 68% 29.89 in 10.0 mi East 10.4 mph - N/A   Scattered Clouds
2:35 PM 66.2 °F 53.6 °F 64% 29.89 in 10.0 mi East 11.5 mph - N/A   Partly Cloudy
2:55 PM 68.0 °F 55.4 °F 64% 29.88 in 10.0 mi East 11.5 mph 16.1 mph N/A   Partly Cloudy
3:15 PM 69.8 °F 55.4 °F 60% 29.87 in 10.0 mi ESE 12.7 mph - N/A   Partly Cloudy
3:35 PM 69.8 °F 55.4 °F 60% 29.86 in 10.0 mi East 11.5 mph - N/A   Clear
3:55 PM 69.8 °F 55.4 °F 60% 29.86 in 10.0 mi ESE 15.0 mph - N/A   Partly Cloudy
4:15 PM 69.8 °F 55.4 °F 60% 29.87 in 10.0 mi ESE 16.1 mph 21.9 mph N/A   Partly Cloudy
4:35 PM 69.8 °F 55.4 °F 60% 29.87 in 10.0 mi ESE 17.3 mph 21.9 mph N/A   Clear
4:55 PM 68.0 °F 57.2 °F 68% 29.87 in 10.0 mi East 12.7 mph 20.7 mph N/A   Partly Cloudy
5:15 PM 66.2 °F 57.2 °F 73% 29.87 in 10.0 mi ESE 18.4 mph 21.9 mph N/A   Partly Cloudy
5:35 PM 66.2 °F 57.2 °F 73% 29.87 in 10.0 mi East 16.1 mph - N/A   Scattered Clouds
5:55 PM 66.2 °F 57.2 °F 73% 29.87 in 10.0 mi ESE 15.0 mph 18.4 mph N/A   Mostly Cloudy
6:15 PM 64.4 °F 57.2 °F 77% 29.87 in 10.0 mi ESE 15.0 mph 20.7 mph N/A   Overcast
6:35 PM 64.4 °F 57.2 °F 77% 29.87 in 10.0 mi East 17.3 mph 20.7 mph N/A   Overcast
6:55 PM 64.4 °F 57.2 °F 77% 29.87 in 10.0 mi ESE 16.1 mph 21.9 mph N/A   Mostly Cloudy
7:15 PM 64.4 °F 57.2 °F 77% 29.87 in 10.0 mi ESE 11.5 mph 20.7 mph N/A   Overcast
7:35 PM 62.6 °F 57.2 °F 82% 29.87 in 10.0 mi East 10.4 mph 17.3 mph N/A   Overcast
7:55 PM 62.6 °F 59.0 °F 88% 29.87 in 10.0 mi East 10.4 mph - N/A   Overcast
8:15 PM 62.6 °F 59.0 °F 88% 29.87 in 10.0 mi East 9.2 mph - N/A   Overcast
8:35 PM 62.6 °F 59.0 °F 88% 29.87 in 10.0 mi East 6.9 mph - N/A   Overcast
8:55 PM 62.6 °F 59.0 °F 88% 29.86 in 10.0 mi ESE 10.4 mph - N/A   Overcast
9:15 PM 62.6 °F 60.8 °F 94% 29.86 in 10.0 mi ESE 9.2 mph - N/A   Overcast
9:35 PM 62.6 °F 60.8 °F 94% 29.86 in 10.0 mi East 8.1 mph - N/A   Overcast
9:55 PM 62.6 °F 60.8 °F 94% 29.85 in 10.0 mi East 11.5 mph - N/A   Overcast
10:15 PM 62.6 °F 60.8 °F 94% 29.85 in 10.0 mi East 11.5 mph - N/A   Overcast
10:35 PM 62.6 °F 60.8 °F 94% 29.85 in 10.0 mi East 9.2 mph 17.3 mph N/A   Overcast
10:55 PM 62.6 °F 60.8 °F 94% 29.87 in 10.0 mi ENE 4.6 mph - N/A   Overcast
11:15 PM 62.6 °F 60.8 °F 94% 29.86 in 10.0 mi NE 3.5 mph - N/A   Overcast
11:35 PM 62.6 °F 59.0 °F 88% 29.86 in 10.0 mi ENE 4.6 mph - N/A   Overcast
11:55 PM 62.6 °F 59.0 °F 88% 29.86 in 10.0 mi ENE 6.9 mph - N/A   Overcast